Wind_Speed
4 3 6 9 8 6 5 7 12 10 11 8 16 12 19 17 14 15 14 12 13 16 18 25 31 33 33 29 28 27 22 20 22 19 15 14 14 14 14 13 12 10 7 4
3 7 11 6 4 6 4 6 8 3 12 7 13 17 19 19 20 18 16 14 14 11 12 19 24 28 31 31 28 25 24 22 24 20 17 14 12 11 9 6 5 7 7 4
7 7 7 5 9 4 6 8 9 10 6 6 11 1 8 14 14 13 14 18 18 18 16 14 19 24 30 30 28 27 26 23 23 18 15 14 10 10 9 11 12 12 6 5
6 11 8 8 8 7 8 10 14 8 16 7 8 6 6 17 15 11 13 16 17 18 20 17 19 21 25 32 31 30 27 26 21 20 19 16 13 11 7 13 16 10 5 4
9 10 10 9 16 7 13 8 12 11 16 7 3 5 10 8 9 11 15 21 20 19 22 21 23 28 30 33 35 33 30 26 24 22 19 18 12 10 13 16 14 8 6 5
10 6 8 11 17 9 14 5 6 5 5 2 11 7 4 10 25 21 12 19 19 19 22 22 30 31 31 33 34 33 32 29 25 23 20 21 17 15 17 17 14 11 5 3
4 17 10 9 6 7 4 6 2 2 1 6 8 8 11 21 24 18 20 21 22 20 20 20 20 23 30 32 33 37 35 32 28 27 24 19 13 11 13 13 12 10 8 10
9 12 15 6 11 11 8 10 6 7 3 5 8 7 11 17 26 20 19 24 22 20 21 23 22 27 32 36 37 37 38 36 34 30 24 18 16 13 10 11 10 11 11 10
6 8 8 11 11 11 9 4 10 7 1 3 4 7 6 6 16 16 18 17 20 20 21 22 22 29 33 36 39 41 43 41 39 33 26 22 19 16 14 15 15 11 9 9
8 4 8 14 5 7 15 8 3 3 7 4 5 4 6 4 12 12 13 16 18 18 19 19 19 30 35 39 41 42 45 45 43 36 31 29 21 18 16 15 14 12 10 10
12 5 13 1 6 10 2 3 4 6 5 6 3 6 7 15 17 17 17 17 13 17 19 20 19 31 35 36 37 38 39 39 42 39 35 31 24 22 20 17 13 11 11 10
10 7 13 18 12 8 8 9 7 6 5 1 5 7 5 13 13 16 16 14 12 18 19 20 20 31 31 35 33 37 36 37 41 39 35 33 25 24 25 22 16 12 13 11
11 6 8 8 7 3 7 6 6 6 5 7 6 5 1 4 4 8 10 9 9 14 15 19 17 17 28 33 33 34 35 36 36 38 37 34 28 28 27 23 19 17 15 15
13 6 11 14 9 5 6 7 7 8 5 6 6 5 4 6 10 7 10 12 10 10 18 19 18 19 29 34 36 36 34 36 39 40 39 38 32 31 25 22 23 21 19 19
12 9 7 10 19 10 14 12 9 6 9 9 8 11 10 11 12 13 13 11 10 9 10 16 18 18 25 28 30 30 30 35 43 42 41 41 38 31 25 24 25 24 23 22
6 7 9 16 8 8 7 9 14 7 5 2 6 7 11 12 9 8 13 11 9 7 9 10 15 17 20 30 32 35 36 39 38 39 39 39 36 30 29 26 25 25 25 23
11 7 5 9 7 6 4 2 6 3 4 6 7 11 10 5 9 10 9 9 10 9 6 9 9 10 21 29 33 32 34 36 44 41 41 40 36 33 34 31 27 26 28 25
5 8 4 5 4 5 7 1 12 11 5 7 6 9 16 13 8 7 7 9 10 10 9 8 7 15 28 31 29 26 34 39 38 37 40 41 40 39 38 34 31 29 28 27
3 5 4 5 5 4 3 5 5 6 5 6 2 6 8 12 7 3 6 7 9 8 6 4 7 13 28 29 30 36 34 38 36 35 41 41 41 40 37 35 34 32 31 29
9 8 5 3 6 5 1 6 5 7 6 9 7 8 6 5 7 3 3 7 7 8 11 9 10 10 17 25 32 33 33 31 31 38 45 42 39 37 38 39 36 33 31 30
5 5 4 3 4 2 5 8 2 8 6 5 5 8 7 6 3 3 3 5 7 10 14 14 14 19 25 29 30 28 31 30 36 37 41 37 33 40 43 40 33 30 26 14
4 3 3 4 4 4 15 7 7 4 3 7 8 6 9 7 6 6 8 8 6 3 6 16 17 18 24 31 30 26 23 17 18 14 8 5 10 21 29 35 28 21 14 10
4 5 5 4 3 7 9 9 3 4 6 6 9 6 6 7 3 1 1 4 7 10 8 16 8 16 15 19 24 25 17 21 22 19 16 17 24 16 34 16 16 16 11 5
2 3 4 7 3 4 5 6 8 9 8 9 7 6 7 5 7 7 5 3 5 7 6 11 19 18 20 33 33 29 24 25 25 22 17 14 12 6 31 14 14 12 11 12
4 4 7 1 3 2 4 5 5 8 11 9 8 6 6 9 9 6 3 3 4 4 6 7 15 20 21 28 32 31 27 20 15 16 18 21 17 26 27 18 17 16 14 9
2 6 5 4 4 4 5 4 4 11 6 1 3 7 6 6 3 1 4 1 4 7 15 17 19 22 27 31 28 23 22 17 17 15 7 5 19 24 24 19 13 11 10 8
Wind_Direction
244 123 216 233 199 208 217 133 175 195 151 126 158 161 176 177 183 190 186 179 177 178 183 177 180 188 191 191 187 190 191 198 199 198 207 214 222 230 241 249 251 249 235 231
304 215 228 227 212 231 234 201 198 217 163 116 167 172 181 181 195 192 185 178 173 159 165 175 170 173 182 187 187 191 194 194 196 206 209 211 223 237 235 239 228 198 211 213
184 239 227 219 267 280 285 203 199 186 146 69 128 178 189 204 199 203 197 183 173 164 171 177 178 176 181 185 190 190 193 194 195 203 200 205 218 230 235 227 204 195 204 228
199 245 238 231 244 179 268 215 220 161 160 159 176 206 243 197 198 202 186 183 185 173 173 179 184 185 188 192 194 193 195 195 204 203 199 204 214 218 200 185 182 179 195 177
229 216 225 237 237 176 241 214 199 168 176 110 185 104 213 137 213 212 198 197 188 181 178 180 184 184 194 192 194 191 192 197 201 203 208 209 206 184 183 174 170 174 172 227
212 243 182 221 248 218 245 254 52 55 96 133 205 154 249 188 209 210 219 199 193 186 183 182 186 185 187 192 192 195 193 196 200 205 206 197 190 172 161 174 180 174 180 220
294 237 244 210 237 273 168 67 305 342 120 205 192 190 234 207 217 204 198 195 196 188 181 178 182 176 178 185 190 196 196 197 198 197 192 194 189 190 192 194 188 179 158 155
216 251 225 214 189 221 210 158 158 200 250 251 141 212 246 200 206 201 196 194 196 184 185 183 184 180 178 182 189 192 195 197 195 192 194 196 197 197 188 186 191 194 192 181
172 245 262 223 221 166 238 147 188 138 70 68 259 300 329 205 195 184 184 182 192 189 185 186 186 185 185 186 189 191 194 195 195 198 196 194 191 199 208 215 204 205 203 198
219 271 242 253 186 248 190 175 96 0 164 202 281 259 230 199 181 194 189 186 188 189 185 187 188 190 193 194 193 193 195 194 199 198 194 191 194 195 200 193 202 208 201 214
195 142 262 56 213 208 78 128 62 121 138 162 224 268 217 199 184 186 200 208 169 183 188 187 194 195 196 197 194 195 193 193 197 197 193 195 199 200 199 206 205 208 215 227
195 175 236 248 249 229 164 172 147 139 228 152 160 264 263 183 184 182 201 202 184 186 190 192 194 194 195 197 194 195 193 195 198 196 194 201 205 206 205 206 211 219 227 235
195 210 236 303 331 357 162 165 141 108 91 184 140 255 138 53 129 178 168 194 195 179 188 198 192 194 195 197 196 194 193 195 195 197 195 203 205 209 206 205 216 219 230 240
163 146 194 224 214 183 194 162 161 142 142 173 203 188 161 183 178 186 178 168 181 178 178 187 192 200 199 197 197 194 194 192 192 198 198 202 200 200 204 207 210 222 231 237
160 181 155 213 223 211 203 184 160 153 181 169 217 183 208 192 181 182 177 173 172 187 169 185 194 200 198 197 200 197 192 190 192 193 196 201 200 203 207 209 219 227 229 236
177 216 153 227 229 212 164 210 160 153 132 72 160 213 196 198 166 167 180 175 162 193 178 191 206 199 196 196 195 191 189 193 184 188 193 200 207 204 209 211 219 224 230 235
153 139 119 214 158 117 74 119 215 245 73 200 169 220 160 163 185 172 161 166 154 149 154 182 181 198 209 204 198 191 189 182 189 188 193 203 206 208 212 217 219 227 232 235
151 123 111 173 111 134 233 173 106 92 8 327 256 187 176 178 169 161 165 146 152 151 165 177 176 198 205 206 203 193 185 182 179 189 197 204 204 214 216 217 222 231 236 240
4 109 82 132 145 198 46 26 153 137 347 318 237 85 126 125 91 37 193 163 162 165 164 177 206 223 214 204 191 185 176 179 181 186 201 204 210 212 215 220 226 233 236 240
50 58 99 85 120 167 218 298 357 103 20 325 75 76 97 74 100 254 302 143 145 158 151 173 215 227 198 189 182 175 176 177 178 189 204 203 212 217 218 224 228 233 237 239
11 12 58 87 130 313 275 291 213 78 219 322 57 69 67 86 152 274 66 65 150 167 179 196 206 202 196 180 171 174 175 183 186 200 200 209 216 220 225 226 228 230 238 220
76 54 11 1 55 27 351 311 84 208 52 68 41 62 82 57 28 32 16 356 350 354 267 213 196 203 187 174 168 170 172 171 169 176 188 93 357 320 271 222 222 229 211 166
44 154 147 91 153 262 322 71 90 80 90 61 67 30 77 79 25 93 195 320 336 305 282 255 224 109 147 156 156 129 123 147 142 135 139 74 16 335 328 283 228 162 158 205
80 103 107 116 241 302 319 30 39 61 62 44 67 27 46 25 6 358 351 290 262 313 321 152 126 118 116 131 138 138 142 142 124 108 90 89 111 169 262 237 177 175 211 215
159 155 103 279 100 1 10 23 95 72 59 40 22 16 30 26 5 13 10 345 33 17 10 105 115 117 112 125 128 129 134 138 146 171 186 181 202 202 216 190 185 200 204 194
357 158 153 194 125 121 268 283 287 82 88 357 23 5 358 71 306 307 148 6 183 113 92 74 95 109 118 126 130 133 136 133 155 184 163 210 217 215 201 197 184 174 150 144
Height
729 751 764 754 752 747 755 763 768 756 751 769 775 782 776 774 779 783 781 783 785 788 789 792 796 800 804 807 811 815 818 820 823 824 825 827 827 828 829 830 831 832 833 834
745 759 737 731 737 747 754 764 763 750 746 761 776 781 771 770 770 771 776 780 781 786 789 792 793 797 801 805 808 812 814 817 819 821 822 824 825 825 826 828 829 830 831 832
753 738 723 732 739 750 753 760 760 756 748 758 776 796 787 772 768 769 770 768 771 778 786 789 793 795 798 803 805 809 812 814 816 818 821 822 823 823 824 824 826 828 829 830
741 722 728 735 742 743 771 739 732 745 756 797 765 822 795 775 775 771 769 771 770 773 776 783 788 793 796 798 803 806 809 811 813 815 817 818 818 820 820 821 824 826 827 828
739 729 733 740 732 729 744 726 735 737 751 771 776 805 777 783 790 777 765 759 759 763 767 775 780 785 791 794 797 801 805 808 810 813 814 816 817 817 818 820 823 824 824 825
724 706 716 721 712 717 710 722 739 752 774 804 776 788 797 785 761 757 758 754 755 759 762 767 773 779 785 792 795 798 801 803 806 809 811 813 815 816 816 819 821 822 822 822
729 720 707 704 725 713 717 754 792 793 809 810 777 784 765 750 738 739 745 745 745 751 757 763 769 776 780 786 790 794 797 799 803 805 808 811 813 814 815 817 819 820 820 821
754 756 714 701 717 729 734 748 793 804 803 788 766 781 748 723 714 724 726 730 736 745 749 754 761 767 772 777 783 787 790 794 798 801 804 808 810 812 814 816 817 819 820 821
754 748 701 695 695 709 727 748 732 768 770 789 772 747 719 712 720 723 728 735 735 738 744 750 756 760 765 769 773 777 781 786 791 796 800 804 806 809 811 813 815 817 818 818
722 748 706 691 691 693 702 707 752 771 792 795 781 763 764 736 730 725 729 732 731 733 739 745 750 752 756 759 763 768 773 777 783 789 794 799 802 804 809 810 812 813 815 816
702 726 713 700 708 715 713 722 733 747 766 792 798 781 727 719 717 723 721 717 728 730 732 736 740 746 749 753 759 762 768 773 778 783 789 794 798 801 804 807 810 810 812 813
693 720 727 713 688 680 689 711 726 760 763 769 777 770 706 706 708 707 712 713 717 721 724 728 733 738 744 747 753 756 763 768 772 779 785 790 794 798 800 803 805 807 808 810
678 717 732 727 706 684 691 696 708 728 745 764 777 765 704 704 707 705 713 712 713 718 723 722 728 734 737 741 746 751 756 762 769 775 783 788 790 792 795 797 801 803 804 806
657 701 709 724 720 695 700 694 699 716 752 758 753 733 716 713 715 711 711 708 709 710 714 717 721 725 728 733 737 743 750 756 763 769 774 779 783 788 791 793 797 798 800 802
658 698 697 693 678 683 678 684 698 708 714 730 726 730 719 711 707 703 700 702 707 710 713 712 715 718 723 730 734 741 747 750 755 760 769 774 778 783 787 789 792 794 795 797
660 687 683 687 676 673 678 675 680 687 700 701 710 717 695 690 691 700 695 698 700 704 707 710 710 712 716 720 725 729 736 740 749 756 763 771 775 780 782 783 785 788 789 793
666 679 696 707 682 682 699 677 676 679 685 691 721 698 689 695 696 696 697 699 700 700 700 706 709 712 714 715 718 723 730 737 741 749 757 765 771 774 776 778 780 782 784 788
663 676 691 703 690 723 685 657 666 689 690 691 683 680 678 681 684 688 686 689 693 694 699 701 702 706 706 709 715 722 727 730 739 749 757 761 763 766 770 773 775 777 780 784
655 667 704 711 714 693 675 684 685 691 702 687 682 675 674 676 683 688 683 682 685 688 692 695 697 700 700 703 706 712 721 726 735 745 751 753 756 759 764 768 768 770 774 778
654 668 680 708 708 718 697 683 669 671 730 690 683 684 682 678 713 706 684 681 686 688 688 693 696 695 696 700 705 709 715 722 729 736 741 746 750 755 758 759 761 764 768 770
689 689 708 718 723 712 687 677 663 723 731 691 684 689 691 698 700 696 686 684 684 687 689 690 692 690 693 699 702 710 714 719 724 734 742 747 750 751 750 751 755 759 764 768
705 712 725 721 716 726 688 681 702 706 693 692 693 693 699 699 698 694 693 693 693 691 688 688 689 690 692 696 702 708 714 723 732 741 748 755 759 759 754 745 748 756 759 762
708 712 723 731 739 718 706 703 700 697 699 698 699 697 699 699 704 699 694 695 695 695 689 689 689 690 697 701 706 714 723 729 733 739 746 742 747 759 752 732 749 749 754 759
691 692 714 721 722 720 710 698 699 698 701 700 707 710 703 703 698 694 696 699 702 695 688 686 688 690 695 699 706 711 718 726 735 739 739 735 737 754 762 754 747 751 757 758
693 699 705 725 711 712 711 706 700 702 697 703 707 710 709 704 702 698 702 705 700 699 698 693 691 692 699 704 707 715 722 726 731 733 734 738 743 739 748 748 748 751 754 754
694 702 716 725 712 718 723 713 706 700 705 710 714 712 713 700 707 699 694 700 706 698 699 703 702 704 705 713 716 719 723 725 727 731 733 738 746 747 744 747 752 754 752 752